Regional Weather Roundup
Issued by NWS Little Rock, AR

Home | Current Version | Previous Version | Text Only | Print | Product List | Glossary Off
Versions: 1 2 3 4 5 6 7 8 9 10 11 12 13 14 15 16 17 18 19 20 21 22 23 24 25 26 27 28 29 30 31 32 33 34 35 36 37 38 39 40 41 42 43 44 45 46 47 48 49 50

000
ASUS44 KLZK 240605
RWRLZK

WEATHER ROUNDUP FOR ARKANSAS
NATIONAL WEATHER SERVICE LITTLE ROCK AR
100 AM CDT THU JUL 24 2014

NOTE: "FAIR" INDICATES FEW OR NO CLOUDS BELOW 12,000 FEET WITH NO
SIGNIFICANT WEATHER AND/OR OBSTRUCTIONS TO VISIBILITY.

ARZ001-003-010-029-240700-
NORTHWEST ARKANSAS

CITY           SKY/WX    TMP DP  RH WIND       PRES   REMARKS
FAYETTEVILLE   CLEAR     65  65 100 S3        30.09S
6HR MIN TEMP:  64; 6HR MAX TEMP:  76;

FORT SMITH     CLEAR     70  68  93 W5        30.04S
6HR MIN TEMP:  70; 6HR MAX TEMP:  74;

HARRISON       FOG       69  69 100 NW6       30.08F VSB 1/4
6HR MIN TEMP:  69; 6HR MAX TEMP:  95;

BENTONVILLE    CLEAR     70  64  83 CALM      30.10R
6HR MIN TEMP:  70; 6HR MAX TEMP:  86;

ROGERS         CLEAR     69  66  90 W3        30.10F
6HR MIN TEMP:  68; 6HR MAX TEMP:  86;

SILOAM SPGS    CLEAR     66  61  82 CALM      30.10S
6HR MIN TEMP:  66; 6HR MAX TEMP:  84;

HIGHFILL       CLEAR     68  66  93 CALM      30.08F
6HR MIN TEMP:  68; 6HR MAX TEMP:  86;

$$

ARZ004-005-016-240700-
NORTH CENTRAL ARKANSAS

CITY           SKY/WX    TMP DP  RH WIND       PRES   REMARKS
BATESVILLE     MOCLDY    68  68 100 CALM      30.04R
6HR MIN TEMP:  66; 6HR MAX TEMP:  72;

FLIPPIN        CLOUDY    70  70 100 W3        30.05F
6HR MIN TEMP:  70; 6HR MAX TEMP:  73;

MTN HOME       CLEAR     67  67 100 CALM      30.05S
6HR MIN TEMP:  67; 6HR MAX TEMP:  72;

$$

ARZ040-041-240700-
WEST CENTRAL ARKANSAS

CITY           SKY/WX    TMP DP  RH WIND       PRES   REMARKS
MENA           CLEAR     68  66  94 CALM      30.04R
MOUNT IDA      PTCLDY    66  65  96 CALM      30.01S FOG
6HR MIN TEMP:  66; 6HR MAX TEMP:  71; 6HR PCP:  0.11;

$$

ARZ009-017-025-026-028-240700-
NORTHEAST ARKANSAS

CITY           SKY/WX    TMP DP  RH WIND       PRES   REMARKS
CORNING        CLOUDY    73  73 100 NE8       30.04S
JONESBORO      CLOUDY    74  68  81 N3        30.02F
6HR MIN TEMP:  70; 6HR MAX TEMP:  74;

NEWPORT        CLOUDY    72  71  96 NE9       30.03F
6HR MIN TEMP:  69; 6HR MAX TEMP:  72;

WALNUT RIDGE   MOCLDY    73  70  88 N6        30.02F
6HR MIN TEMP:  72; 6HR MAX TEMP:  73;

BLYTHEVILLE    MOCLDY    71  70  96 NW6       30.02S
6HR MIN TEMP:  71; 6HR MAX TEMP:  74;

$$

ARZ022-023-033-042-044-240700-
CENTRAL ARKANSAS

CITY           SKY/WX    TMP DP  RH WIND       PRES   REMARKS
LITTLE ROCK    PTCLDY    70  67  90 N6        30.00S
6HR MIN TEMP:  70; 6HR MAX TEMP:  73; 6HR PCP:  0.08;

N LITTLE ROCK    N/A     69  69 100 NW9       30.00S
6HR MIN TEMP:  69; 6HR MAX TEMP:  71;

JACKSONVILLE   PTCLDY    69  -1   6 NW3       30.00F
6HR MIN TEMP:  69; 6HR MAX TEMP:  71; 6HR PCP:  0.02;

HOT SPRINGS    CLEAR     69  68  96 CALM      30.00F
6HR MIN TEMP:  69; 6HR MAX TEMP:  72;

RUSSELLVILLE   PTCLDY    70  68  93 CALM      30.03R
6HR MIN TEMP:  70; 6HR MAX TEMP:  73;

CLINTON        FOG       66  66 100 CALM      30.04S VSB 1/4
$$

ARZ036-240700-
EAST ARKANSAS

CITY           SKY/WX    TMP DP  RH WIND       PRES   REMARKS
WEST MEMPHIS   CLEAR     69  69 100 N3        30.00F
6HR MIN TEMP:  69; 6HR MAX TEMP:  75;

$$

ARZ050-053-066-070-073-240700-
SOUTHWEST ARKANSAS

CITY           SKY/WX    TMP DP  RH WIND       PRES   REMARKS
ARKADELPHIA    FOG       70  70 100 SW3       30.00S VSB 1/2
6HR MIN TEMP:  70; 6HR MAX TEMP:  73; 6HR PCP:  0.36;

TEXARKANA      MOCLDY    69  69 100 N3        30.00F
6HR MIN TEMP:  69; 6HR MAX TEMP:  71; 6HR PCP:  0.22;

EL DORADO      CLOUDY    69  68  96 CALM      30.00S
6HR MIN TEMP:  69; 6HR MAX TEMP:  76;

$$

ARZ056-057-069-240700-
SOUTHEAST ARKANSAS

CITY           SKY/WX    TMP DP  RH WIND       PRES   REMARKS
PINE BLUFF     PTCLDY    70  68  93 CALM      30.02R
6HR MIN TEMP:  70; 6HR MAX TEMP:  73; 6HR PCP:  0.07;

STUTTGART      PTCLDY    72  68  88 NE7       30.01R
6HR MIN TEMP:  72; 6HR MAX TEMP:  73; 6HR PCP:  0.10;

MONTICELLO     PTCLDY    71  68  90 CALM      29.99S
6HR MIN TEMP:  70; 6HR MAX TEMP:  84;


$$




USA.gov is the U.S. government's official web portal to all federal, state and local government web resources and services.